Weather History for EGJB - September, 2013

Change the Weather History Date:

Sunday, September 15, 2013

  Actual Average Record
Temperature  
Mean Temperature 56 °F -  
Max Temperature 60 °F 60 °F 75 °F (2003)
Min Temperature 51 °F 53 °F 50 °F (1999)
Degree Days  
Heating Degree Days 10    
Growing Degree Days 6 (Base 50)    
Moisture  
Dew Point 53 °F    
Average Humidity 85    
Maximum Humidity 100    
Minimum Humidity 68    
Precipitation  
Precipitation 0.12 in - - ()
Sea Level Pressure  
Sea Level Pressure 29.94 in    
Wind  
Wind Speed 13 mph ()    
Max Wind Speed 29 mph    
Max Gust Speed 40 mph    
Visibility 5.5 miles    
Events Rain    
Averages and records for this station are not official NWS values.
T = Trace of Precipitation, MM = Missing Value Source: Averaged Metar Reports

Daily Weather History Graph

Daily Weather History Graph

Search for Another Location

Airport or City:

Trip Planner

Search our weather history database for the weather conditions in past years. The results will help you decide how hot, cold, wet, or windy it might be!

Date:

Astronomy

Sep. 15, 2013 Rise Set
Actual Time 6:46 AM BST 7:23 PM BST
Civil Twilight 6:14 AM BST 7:55 PM BST
Nautical Twilight 5:36 AM BST 8:33 PM BST
Astronomical Twilight 4:55 AM BST 9:13 PM BST
Moon 4:57 PM BST (9/15) 1:48 AM BST (9/15)
Length of Visible Light 13h 41m
Length of Day
12h 36m
Waxing Gibbous, 80% of the Moon is Illuminated
Sep 15
Waxing Gibbous
Sep 19
Full
Sep 27
Last Quarter
Oct 5
New
Oct 12
First Quarter

Hourly Weather History & Observations

Time (BST) Temp. Dew Point Humidity Pressure Visibility Wind Dir Wind Speed Gust Speed Precip Events Conditions
1:00 AM 53 °F 48 °F 78% 30.12 in 31 mi NNW 5.8 mph - -   Scattered Clouds
3:50 AM 53.6 °F 48.2 °F 82% 30.06 in 6.2 mi NW 3.5 mph - N/A   Partly Cloudy
4:20 AM 53.6 °F 48.2 °F 82% 30.06 in 6.2 mi WNW 3.5 mph - N/A   Partly Cloudy
4:50 AM 53.6 °F 46.4 °F 77% 30.06 in 6.2 mi WNW 3.5 mph - N/A   Partly Cloudy
5:20 AM 51.8 °F 46.4 °F 82% 30.06 in 6.2 mi West 3.5 mph - N/A   Partly Cloudy
5:50 AM 51.8 °F 48.2 °F 88% 30.06 in 6.2 mi West 4.6 mph - N/A   Partly Cloudy
6:20 AM 51.8 °F 48.2 °F 88% 30.06 in 6.2 mi WSW 5.8 mph - N/A   Partly Cloudy
6:50 AM 51.8 °F 48.2 °F 88% 30.04 in 6.2 mi WSW 5.8 mph - N/A   Partly Cloudy
7:20 AM 53.6 °F 50.0 °F 88% 30.04 in 6.2 mi WSW 8.1 mph - N/A   Partly Cloudy
7:50 AM 55.4 °F 50.0 °F 82% 30.04 in 6.2 mi WSW 10.4 mph - N/A   Partly Cloudy
8:20 AM 55.4 °F 50.0 °F 82% 30.04 in 6.2 mi West 11.5 mph - N/A   Partly Cloudy
8:50 AM 57.2 °F 50.0 °F 77% 30.04 in 6.2 mi WSW 13.8 mph - N/A   Partly Cloudy
9:20 AM 57.2 °F 51.8 °F 82% 30.04 in 6.2 mi WSW 15.0 mph - N/A   Partly Cloudy
9:50 AM 57.2 °F 50.0 °F 77% 30.04 in 6.2 mi WSW 16.1 mph - N/A   Partly Cloudy
10:00 AM 58 °F 50 °F 68% 30.04 in 31 mi WSW 16.1 mph - -   Scattered Clouds
10:20 AM 57.2 °F 50.0 °F 77% 30.04 in 6.2 mi SW 18.4 mph - N/A   Scattered Clouds
10:50 AM 59.0 °F 50.0 °F 72% 30.01 in 6.2 mi WSW 18.4 mph - N/A   Partly Cloudy
11:20 AM 57.2 °F 51.8 °F 82% 30.01 in 6.2 mi SW 18.4 mph - N/A   Partly Cloudy
11:50 AM 59.0 °F 51.8 °F 77% 30.01 in 6.2 mi SW 20.7 mph - N/A   Scattered Clouds
12:20 PM 57.2 °F 51.8 °F 82% 29.98 in 6.2 mi SW 21.9 mph - N/A   Scattered Clouds
12:50 PM 59.0 °F 51.8 °F 77% 29.95 in 6.2 mi SW 21.9 mph - N/A   Partly Cloudy
1:00 PM 58 °F 52 °F 73% 29.97 in 28 mi SW 21.9 mph - -   Scattered Clouds
1:20 PM 59.0 °F 53.6 °F 82% 29.95 in 6.2 mi SW 23.0 mph - N/A   Partly Cloudy
1:50 PM 60.8 °F 53.6 °F 77% 29.92 in 6.2 mi SW 27.6 mph - N/A   Mostly Cloudy
2:20 PM 60.8 °F 53.6 °F 77% 29.92 in 6.2 mi SW 28.8 mph - N/A   Scattered Clouds
2:50 PM 59.0 °F 53.6 °F 82% 29.89 in 6.2 mi SW 28.8 mph - N/A   Mostly Cloudy
3:20 PM 59.0 °F 53.6 °F 82% 29.89 in 6.2 mi SW 27.6 mph - N/A   Scattered Clouds
3:50 PM 59.0 °F 53.6 °F 82% 29.86 in 5.6 mi SW 27.6 mph - N/A Rain Light Rain
4:00 PM 58 °F 54 °F 83% 29.87 in 3 mi SW 27.6 mph - - Rain Light Rain
4:20 PM 59.0 °F 55.4 °F 88% 29.86 in 6.2 mi SW 26.5 mph - N/A   Mostly Cloudy
4:50 PM 59.0 °F 57.2 °F 94% 29.83 in 2.8 mi SW 26.5 mph 38.0 mph N/A Rain Light Rain
5:20 PM 59.0 °F 57.2 °F 94% 29.80 in 5.6 mi SW 27.6 mph 40.3 mph N/A   Light Drizzle
5:50 PM 59.0 °F 57.2 °F 94% 29.80 in 3.7 mi SW 28.8 mph - N/A   Light Drizzle
6:20 PM 59.0 °F 59.0 °F 100% 29.80 in 1.6 mi SW 26.5 mph - N/A Rain Rain
6:50 PM 59.0 °F 59.0 °F 100% 29.77 in 2.8 mi SW 26.5 mph - N/A Rain Rain
7:00 PM 59 °F 59 °F 98% 29.78 in 3 mi SW 26.5 mph - - Rain Rain
7:20 PM 59.0 °F 59.0 °F 100% 29.77 in - SW 25.3 mph - N/A Rain Light Rain
7:50 PM 59.0 °F 59.0 °F 100% 29.74 in 0.7 mi SW 25.3 mph - N/A Rain Light Rain
8:20 PM 60.8 °F 60.8 °F 100% 29.74 in 0.9 mi WSW 25.3 mph - N/A Rain Rain
8:50 PM 59.0 °F 59.0 °F 100% 29.77 in 5.6 mi West 25.3 mph - N/A   Light Drizzle
9:20 PM 59.0 °F 57.2 °F 94% 29.77 in 6.2 mi West 18.4 mph - N/A   Mostly Cloudy
10:00 PM 58 °F 55 °F 88% 29.78 in 12 mi WNW 20.7 mph - - Rain Light Drizzle